Regional Weather Roundup
Issued by NWS

Home | Current Version | Previous Version | Text Only | Print | Product List | Glossary Off
Versions: 1 2 3 4 5 6 7 8 9 10 11 12 13 14 15 16 17 18 19 20 21 22 23 24 25 26 27 28 29 30 31 32 33 34 35 36 37 38 39 40 41 42 43 44 45 46 47 48 49 50

000
ASUS43 KOAX 281010
RWRNE

WEATHER ROUNDUP FOR NEBRASKA
NATIONAL WEATHER SERVICE OMAHA NE
500 AM CDT THU APR 28 2016

NOTES: SATELLITE DATA IS BEING USED TO AUGMENT CLOUD COVER ABOVE
       12000 FEET.
       "FAIR" INDICATES FEW OR NO CLOUDS BELOW 12,000 FEET WITH NO
       SIGNIFICANT WEATHER AND/OR OBSTRUCTIONS TO VISIBILITY.

  * THESE STATIONS DO NOT REPORT WEATHER SUCH AS RAIN...SNOW OR FOG.

NEZ001>004-019>022-054>056-281100-
NEBRASKA PANHANDLE

CITY           SKY/WX    TMP DP  RH WIND       PRES   REMARKS
SCOTTSBLUFF    CLOUDY    33  28  81 CALM      29.95R
ALLIANCE       MOCLDY    30  27  88 NW13      29.91R WCI  20
CHADRON        CLOUDY    33  30  88 N6        29.96R WCI  28
KIMBALL        CLOUDY    32  32  98 CALM      29.93R
SIDNEY         CLEAR     27  24  89 NW10      29.94R WCI  17
$$

NEZ057>060-069>072-079>082-281100-
SOUTHWEST NEBRASKA

CITY           SKY/WX    TMP DP  RH WIND       PRES   REMARKS
NORTH PLATTE   CLEAR     31  29  92 NW9       29.90R WCI  23
IMPERIAL       CLEAR     32  28  85 NW15      29.91R WCI  22
LEXINGTON      MOCLDY    35  32  88 NW10      29.89R WCI  27
MCCOOK         CLEAR     33  29  85 W12       29.91R WCI  24
OGALLALA       CLEAR     28  26  90 W7        29.93R WCI  21
$$

NEZ005>010-023>029-035>040-094-281100-
NORTH CENTRAL NEBRASKA

CITY           SKY/WX    TMP DP  RH WIND       PRES   REMARKS
VALENTINE      CLOUDY    33  32  96 NW13      29.90R FOG     WCI  24
AINSWORTH      CLOUDY    35  35  99 NW18      29.87S FOG     WCI  24
BROKEN BOW     CLOUDY    35  33  92 NW18      29.85R WCI  24
O`NEILL        CLOUDY    41  40  95 N13       29.83R FOG
ORD            CLOUDY    39  38  96 NW15      29.82R WCI  31
THEDFORD       FLURRIES  34  33  96 NW12      29.89S WCI  25
$$

NEZ041-046>049-061>064-073>077-083>087-281100-
SOUTH CENTRAL NEBRASKA

CITY           SKY/WX    TMP DP  RH WIND       PRES   REMARKS
GRAND ISLAND   CLOUDY    40  37  89 NW20G29   29.82R WCI  30
AURORA         CLOUDY    41  40  97 NW20      29.80R
HASTINGS       CLOUDY    38  35  89 NW18      29.83R WCI  28
HEBRON         CLOUDY    42  38  87 NW17      29.81R
HOLDREGE       MOCLDY    36  32  87 NW10G17   29.87R WCI  28
KEARNEY *      CLOUDY    37  34  87 NW15      29.85R WCI  28
YORK           CLOUDY    43  41  93 NW21      29.79R
$$

NEZ011>018-030>034-042>045-281100-
NORTHEAST NEBRASKA

CITY           SKY/WX    TMP DP  RH WIND       PRES   REMARKS
NORFOLK        LGT RAIN  42  40  92 NW14      29.77R FOG
ALBION         CLOUDY    42  40  94 N9        29.80R FOG
BLAIR          CLOUDY    46  45  97 N3        29.70R
COLUMBUS *     CLOUDY    45  36  70 NW14G25   29.77R
FREMONT        CLOUDY    45  45 100 NW13      29.74R
TEKAMAH        LGT RAIN  46  44  93 N13       29.72R FOG
WAYNE          CLOUDY    42  41  95 N12       29.77R
$$

NEZ050>053-065>068-078-088>093-281100-
SOUTHEAST NEBRASKA

CITY           SKY/WX    TMP DP  RH WIND       PRES   REMARKS
LINCOLN        CLOUDY    49  43  80 NW16      29.76R
OMAHA EPPLEY   DRIZZLE   46  45  96 SE3       29.70R FOG
BEATRICE       CLOUDY    45  43  95 W17G24    29.76R
FALLS CITY     CLOUDY    48  44  86 W16       29.72R
NEBRASKA CITY  CLOUDY    48  48 100 NW14G22   29.71R
PLATTSMOUTH    CLOUDY    47  45  93 NW15G22   29.70R
$$

NEZ044-045-051>053-067-281100-
OMAHA AREA

CITY           SKY/WX    TMP DP  RH WIND       PRES   REMARKS
OMAHA EPPLEY   DRIZZLE   46  45  96 SE3       29.70R FOG
BLAIR          CLOUDY    46  45  97 N3        29.70R
FREMONT        CLOUDY    45  45 100 NW13      29.74R
MILLARD        DRIZZLE   47  46  94 NW8       29.70R
OFFUTT AFB     CLOUDY    46  46 100 W9        29.70R
PLATTSMOUTH    CLOUDY    47  45  93 NW15G22   29.70R
WAHOO          CLOUDY    46  44  94 NW16      29.73R FOG
$$




USA.gov is the U.S. government's official web portal to all federal, state and local government web resources and services.